Regional Weather Roundup
Issued by NWS Cleveland, OH

Home | Current Version | Previous Version | Graphics & Text | Print | Product List | Glossary On
Versions: 1 2 3 4 5 6 7 8 9 10 11 12 13 14 15 16 17 18 19 20 21 22 23 24 25 26 27 28 29 30 31 32 33 34 35 36 37 38 39 40 41 42 43 44 45 46 47 48 49 50
000
ASUS41 KCLE 270410
RWRCLE
OHIO REGIONAL WEATHER ROUNDUP
NATIONAL WEATHER SERVICE CLEVELAND, OH
1200 AM EDT MON MAR 27 2017

NOTE: "FAIR" INDICATES FEW OR NO CLOUDS BELOW 12,000 FEET WITH NO
SIGNIFICANT WEATHER AND/OR OBSTRUCTIONS TO VISIBILITY.

OHZ001>008-015>018-024>027-034-035-043-044-270500-
   NORTHWEST OHIO

CITY           SKY/WX    TMP DP  RH WIND       PRES   REMARKS
DEFIANCE       CLOUDY    53  51  93 SW8       29.90S
FINDLAY        LGT RAIN  55  50  83 S8        29.90F
TOLEDO EXPRESS CLOUDY    51  51 100 SW5       29.89S
TOLEDO EXEC    CLOUDY    52  52 100 S7        29.90S
LIMA           LGT RAIN  54  53  97 SW7       29.93R
$$

OHZ009>014-019>023-028>033-038-089-270500-
   NORTHEAST OHIO

CITY           SKY/WX    TMP DP  RH WIND       PRES   REMARKS
CLE-HOPKINS    LGT RAIN  58  52  80 S9        29.94F
CLE-LAKEFRONT  LGT RAIN  57  53  86 S13       29.90F
CUY CO. ARPT   NOT AVBL
LORAIN-ELYRIA  CLOUDY    55  51  86 SW10      29.92F
ASHTABULA      LGT RAIN  53  50  89 S12       29.95F
AKRON-CANTON   LGT RAIN  55  52  89 S9        29.95F
WOOSTER        LGT RAIN  54  52  93 S7        29.95S
MANSFIELD      CLOUDY    55  54  96 S8        29.93F
YOUNGSTOWN     LGT RAIN  53  51  93 SE7       29.98S
$$

OHZ042-051>053-060>062-070>072-077>081-270500-
  SOUTHWEST OHIO

CITY           SKY/WX    TMP DP  RH WIND       PRES   REMARKS
CINC-COVINGTON CLEAR     55  53  93 W6        29.98R
CINC-LUNKEN    CLEAR     53  32  44 CALM      29.99R FOG
HAMILTON       CLEAR     55  54  96 W5        29.98S
DAYTON         PTCLDY    54  52  93 SW12      29.96R
WRIGHT-PAT AFB CLEAR     53  53 100 SW8       29.96R
DAYTON GENERAL CLEAR     55  53  93 SW8       29.96R
WILMINGTON     MOCLDY    54  53  97 SW7       29.97R
$$

OHZ036-037-039>041-045>050-054>059-063>069-073>076-082>088-270500-
  CENTRAL AND SOUTHEAST OHIO

CITY           SKY/WX    TMP DP  RH WIND       PRES   REMARKS
COLUMBUS       CLOUDY    56  55  97 S6        29.95S
OSU AIRPORT    MOCLDY    55  55 100 S5        29.95R
BOLTON FIELD   CLOUDY    54  54  99 S7        29.96S
RICKENBACK AFB CLOUDY    55  55 100 S7        29.96S
NEWARK         LGT RAIN  55  54  96 S6        29.95F FOG
MARION         CLOUDY    55  53  93 S6        29.94S
LANCASTER      LGT RAIN  57  55  93 S6        29.97S
ZANESVILLE     LGT RAIN  55  53  93 S5        29.97F
NEW PHILLY     NOT AVBL
$$



USA.gov is the U.S. government's official web portal to all federal, state and local government web resources and services.